Orbital Elements at Epoch 2459200.5 (2020-Dec-17.0) TDB
Reference: JPL 33 (heliocentric ecliptic J2000)
Element | Value | Uncertainty (1-sigma) | Units |
e | .1441528581241175 | 1.7889e-08 | |
a | 2.384321747976818 | 7.2827e-09 | au |
q | 2.040614953318467 | 4.2486e-08 | au |
i | 6.590151908086437 | 7.6217e-07 | deg |
node | 103.2178733865201 | 3.6371e-06 | deg |
peri | 252.3680198084157 | 6.4327e-06 | deg |
M | 286.9138109562097 | 7.6502e-06 | deg |
tp | 2459473.509986300489 (2021-Sep-16.00998630) | 2.9347e-05 | TDB |
period | 1344.76289370196 3.68 | 6.1612e-06 1.687e-08 | d yr |
n | .2677051855654391 | 1.2265e-09 | deg/d |
Q | 2.728028542635168 | 8.3325e-09 | au |
|
| | Orbit Determination Parameters
Additional Information
|